20230310,19099
20230313,19097
20230314,20471
20230315,21273
20230316,22036
20230317,22994
20230320,23991
20230322,24950
20230323,25819
20230324,26833
20230327,28148
20230328,29046
20230329,29017
20230330,29052
20230331,29111
20230403,29192
20230404,29207
20230405,29173
20230406,29167
20230407,29186
20230410,29188
20230411,29203
20230412,29234
20230413,29242
20230414,29297
20230417,29276
20230418,29338
20230419,29350
20230420,29331
20230421,29299
20230424,29302
20230425,29272
20230426,29179
20230427,29131
20230428,29199
20230501,29201
20230502,29153
20230508,29112
20230509,29153
20230510,29111
20230511,29161
20230512,29163
20230515,29149
20230516,29172
20230517,29152
20230518,29187
20230519,29172
20230522,29146
20230523,29137
20230524,29137
20230525,29087
20230526,29082
20230529,29088
20230530,29088
20230531,29122
20230601,29082
20230602,29141
20230605,29248
20230606,29281
20230607,29375
20230608,29395
20230609,29417
20230612,29377
20230613,29420
20230614,29464
20230615,29476
20230616,29502
20230619,29510
20230620,29489
20230621,29485
20230622,29463
20230623,29527
20230626,29478
20230627,29443
20230628,29495
20230629,29557
20230630,29571
20230703,29593
20230704,29624
20230705,29629
20230706,29561
20230707,29430
20230710,29404
20230711,29437
20230712,29480
20230713,29549
20230714,29610
20230718,29575
20230719,29634
20230720,29680
20230721,29642
20230724,29644
20230725,29690
20230726,29686
20230727,29708
20230728,29680
20230731,29756
20230801,29831
20230802,29764
20230803,29656
20230804,29661
20230807,29622
20230808,29646
20230809,29655
20230810,29658
20230814,29645
20230815,29614
20230816,29565
20230817,29554
20230818,29480
20230821,29405
20230822,29384
20230823,29346
20230824,29402
20230825,29418
20230828,29412
20230829,29439
20230830,29511
20230831,29546
20230901,29588
20230904,29584
20230905,29587
20230906,29565
20230907,29544
20230908,29507
20230911,29509
20230912,29548
20230913,29532
20230914,29522
20230915,29577
20230919,29484
20230920,29473
20230921,29483
20230922,29403
20230925,29395
20230926,29382
20230927,29342
20230928,29347
20230929,29354
20231002,29350
20231003,29212
20231004,29115
20231005,29080
20231006,29054
20231010,29025
20231011,29057
20231012,29030
20231013,28984
20231016,28902
20231017,28915
20231018,28905
20231019,28843
20231020,28790
20231023,28713
20231024,28682
20231025,28702
20231026,28570
20231027,28500
20231030,28480
20231031,28473
20231101,28439
20231102,28344
20231106,28622
20231107,28547
20231108,28551
20231109,28509
20231110,28485
20231113,28451
20231114,28455
20231115,28591
20231116,28702
20231117,28741
20231120,28813
20231121,28853
20231122,28821
20231124,28797
20231127,28793
20231128,28802
20231129,28835
20231130,28854
20231201,28874
20231204,28942
20231205,28939
20231206,28911
20231207,28954
20231208,28964
20231211,29001
20231212,29023
20231213,29017
20231214,29107
20231215,29269
20231218,29349
20231219,29381
20231220,29447
20231221,29429
20231222,29451
20231225,29423
20231226,29438
20231227,29442
20231228,29488
20231229,29450
20240104,29309
20240105,29309
20240109,29336
20240110,29333
20240111,29349
20240112,29318
20240115,29295
20240116,29278
20240117,29180
20240118,28975
20240119,28974
20240122,29005
20240123,29046
20240124,29032
20240125,29034
20240126,29022
20240129,28971
20240130,29003
20240131,28921
20240201,28780
20240202,28798
20240205,28741
20240206,28736
20240207,28742
20240208,28708
20240209,28733
20240213,28754
20240214,28573
20240215,28634
20240216,28626
20240219,28494
20240220,28481
20240221,28423
20240222,28394
20240226,28377
20240227,28365
20240228,28438
20240229,28348
20240301,28477
20240304,28399
20240305,28364
20240306,28326
20240307,28313
20240308,28305
20240311,28227
20240312,28066
20240313,28085
20240314,28060
20240315,27931
20240318,27903
20240319,27875
20240321,27846
20240322,27878
20240325,27804
20240326,27788
20240327,27757
20240328,27800
20240329,27678
20240401,27624
20240402,27604
20240403,27570
20240404,27463
20240405,27412
20240408,27338
20240409,27325
20240410,27293
20240411,27230
20240412,27176
20240415,27122
20240416,27083
20240417,26976
20240418,26968
20240419,26921
20240422,26845
20240423,26849
20240424,26848
20240425,26831
20240426,26681
20240430,26738
20240501,26693
20240502,26641
20240507,26740
20240508,26739
20240509,26716
20240510,26618
20240513,26593
20240514,26535
20240515,26515
20240516,26417
